Location: Bilsen
(53.7722°N, 9.8765°E)
Time: 15:38:42
(UTC+00:00)

CZ-2C R/B - Pass Details

Date: 18 February 2020
Orbit: 668 x 784 km, 98.1° (Epoch: 27 March)

Event Time Altitude Azimuth Distance (km) Brightness Sun altitude
Rises 03:49:13 0° 15° (NNE) 3,290 6.2 -25.0°
Reaches altitude 10° 03:51:33 10° 16° (NNE) 2,357 5.4 -24.6°
Maximum altitude 03:56:48 83° 105° (ESE) 793 2.5 -23.9°
Enters shadow 03:59:18 31° 191° (S) 1,325 3.5 -23.5°
